• In Hungary
  • List of Countries
  • For 7 days
  • Water Temperature
  • Satellite Maps
  • Weather Map
  • News
  • Weather Widgets
  • user-avatar
    Login

    Hourly Weather Mechlin

    Today, 22 October, Sunday

    Time Temperature Precipitation Wind Pressure Humidity
    00:00 +10°C° 0 mm 9 mps 756 mmHg 69%
    01:00 +10°C° 0.8 mm 9 mps 756 mmHg 73%
    02:00 +9°C° 0.8 mm 10 mps 756 mmHg 78%
    03:00 +8°C° 0.8 mm 10 mps 755 mmHg 83%
    04:00 +10°C° 0.9 mm 9 mps 756 mmHg 84%
    05:00 +10°C° 0.9 mm 8 mps 756 mmHg 85%
    06:00 +10°C° 0 mm 8 mps 756 mmHg 84%
    07:00 +10°C° 0.3 mm 7 mps 757 mmHg 82%
    08:00 +10°C° 0.3 mm 7 mps 757 mmHg 80%
    09:00 +11°C° 0.3 mm 7 mps 757 mmHg 78%
    10:00 +11°C° 0.1 mm 7 mps 758 mmHg 74%
    11:00 +12°C° 0.1 mm 7 mps 758 mmHg 70%
    12:00 +12°C° 0.1 mm 8 mps 758 mmHg 66%
    13:00 +12°C° 0.2 mm 7 mps 759 mmHg 68%
    14:00 +11°C° 0.2 mm 7 mps 759 mmHg 69%
    15:00 +11°C° 0.2 mm 6 mps 759 mmHg 70%
    16:00 +11°C° 0.1 mm 6 mps 759 mmHg 71%
    17:00 +10°C° 0.1 mm 5 mps 760 mmHg 73%
    18:00 +9°C° 0.1 mm 5 mps 760 mmHg 74%
    19:00 +9°C° 0.1 mm 5 mps 761 mmHg 74%
    20:00 +9°C° 0.1 mm 5 mps 761 mmHg 74%
    21:00 +9°C° 0.1 mm 5 mps 761 mmHg 74%
    22:00 +9°C° 0 mm 5 mps 761 mmHg 75%
    23:00 +9°C° 0 mm 5 mps 762 mmHg 76%

    Tomorrow, 23 October, Monday

    Time Temperature Precipitation Wind Pressure Humidity
    00:00 +9°C° 0 mm 5 mps 762 mmHg 76%
    01:00 +9°C° 0 mm 5 mps 762 mmHg 78%
    02:00 +9°C° 0 mm 5 mps 762 mmHg 80%
    03:00 +9°C° 0 mm 5 mps 762 mmHg 81%
    04:00 +9°C° 0 mm 5 mps 763 mmHg 82%
    05:00 +9°C° 0 mm 5 mps 763 mmHg 83%
    06:00 +9°C° 0 mm 5 mps 763 mmHg 84%
    07:00 +10°C° 0 mm 5 mps 763 mmHg 82%
    08:00 +12°C° 0 mm 5 mps 763 mmHg 79%
    09:00 +12°C° 0 mm 5 mps 764 mmHg 77%
    10:00 +13°C° 0.1 mm 5 mps 764 mmHg 77%
    11:00 +13°C° 0.1 mm 5 mps 764 mmHg 78%
    12:00 +13°C° 0.1 mm 5 mps 764 mmHg 78%
    13:00 +13°C° 0.1 mm 5 mps 764 mmHg 80%
    14:00 +13°C° 0.1 mm 4 mps 764 mmHg 83%
    15:00 +13°C° 0.1 mm 4 mps 764 mmHg 85%
    16:00 +13°C° 0.3 mm 4 mps 764 mmHg 88%
    17:00 +13°C° 0.3 mm 4 mps 764 mmHg 90%
    18:00 +12°C° 0.3 mm 4 mps 765 mmHg 93%
    19:00 +12°C° 0.2 mm 4 mps 765 mmHg 93%
    20:00 +13°C° 0.2 mm 4 mps 765 mmHg 93%
    21:00 +13°C° 0.2 mm 4 mps 765 mmHg 93%
    22:00 +13°C° 0.1 mm 4 mps 765 mmHg 93%
    23:00 +13°C° 0.1 mm 4 mps 765 mmHg 93%

    Day after tomorrow, 24 October, Tuesday

    Time Temperature Precipitation Wind Pressure Humidity
    00:00 +13°C° 0.1 mm 4 mps 765 mmHg 93%
    01:00 +13°C° 0.1 mm 4 mps 765 mmHg 94%
    02:00 +13°C° 0.1 mm 4 mps 765 mmHg 94%
    03:00 +14°C° 0.1 mm 4 mps 765 mmHg 95%
    04:00 +14°C° 0.2 mm 4 mps 765 mmHg 95%
    05:00 +14°C° 0.2 mm 4 mps 765 mmHg 95%
    06:00 +14°C° 0.2 mm 4 mps 765 mmHg 95%
    07:00 +14°C° 1.2 mm 5 mps 765 mmHg 95%
    08:00 +14°C° 1.2 mm 5 mps 765 mmHg 94%
    09:00 +15°C° 1.2 mm 5 mps 765 mmHg 94%
    10:00 +15°C° 1.2 mm 5 mps 765 mmHg 92%
    11:00 +16°C° 1.2 mm 5 mps 765 mmHg 91%
    12:00 +16°C° 1.2 mm 5 mps 765 mmHg 89%
    13:00 +17°C° 0 mm 5 mps 765 mmHg 88%
    14:00 +17°C° 0 mm 5 mps 765 mmHg 86%
    15:00 +17°C° 0 mm 5 mps 765 mmHg 84%
    16:00 +17°C° 0 mm 5 mps 765 mmHg 86%
    17:00 +16°C° 0 mm 5 mps 765 mmHg 88%
    18:00 +16°C° 0 mm 5 mps 766 mmHg 90%
    19:00 +15°C° 0 mm 5 mps 766 mmHg 91%
    20:00 +15°C° 0 mm 5 mps 766 mmHg 91%
    21:00 +15°C° 0 mm 5 mps 766 mmHg 92%
    22:00 +14°C° 0 mm 5 mps 766 mmHg 92%
    23:00 +14°C° 0 mm 5 mps 766 mmHg 93%

    25 October, Wednesday

    Time Temperature Precipitation Wind Pressure Humidity
    00:00 +14°C° 0 mm 5 mps 766 mmHg 93%
    01:00 +14°C° 0 mm 5 mps 766 mmHg 93%
    02:00 +13°C° 0 mm 5 mps 765 mmHg 93%
    03:00 +13°C° 0 mm 4 mps 765 mmHg 93%
    04:00 +13°C° 0 mm 4 mps 765 mmHg 93%
    05:00 +12°C° 0 mm 4 mps 765 mmHg 93%
    06:00 +12°C° 0 mm 4 mps 765 mmHg 93%
    07:00 +13°C° 0 mm 4 mps 765 mmHg 90%
    08:00 +14°C° 0 mm 5 mps 766 mmHg 86%
    09:00 +14°C° 0 mm 5 mps 766 mmHg 82%
    10:00 +16°C° 0 mm 5 mps 766 mmHg 77%
    11:00 +17°C° 0 mm 5 mps 766 mmHg 73%
    12:00 +19°C° 0 mm 5 mps 766 mmHg 68%
    13:00 +19°C° 0 mm 4 mps 766 mmHg 69%
    14:00 +19°C° 0 mm 4 mps 766 mmHg 70%
    15:00 +19°C° 0 mm 3 mps 766 mmHg 71%
    16:00 +17°C° 0 mm 3 mps 766 mmHg 77%
    17:00 +16°C° 0 mm 2 mps 766 mmHg 82%
    18:00 +15°C° 0 mm 2 mps 766 mmHg 88%
    19:00 +14°C° 0 mm 2 mps 766 mmHg 89%
    20:00 +14°C° 0 mm 2 mps 767 mmHg 90%
    21:00 +14°C° 0 mm 2 mps 767 mmHg 91%
    22:00 +13°C° 0 mm 2 mps 767 mmHg 92%
    23:00 +13°C° 0 mm 2 mps 767 mmHg 92%

    26 October, Thursday

    Time Temperature Precipitation Wind Pressure Humidity
    00:00 +13°C° 0 mm 2 mps 767 mmHg 93%
    01:00 +13°C° 0 mm 2 mps 767 mmHg 93%
    02:00 +12°C° 0 mm 3 mps 767 mmHg 93%
    03:00 +11°C° 0 mm 3 mps 767 mmHg 93%
    04:00 +11°C° 0 mm 3 mps 767 mmHg 93%
    05:00 +11°C° 0 mm 3 mps 767 mmHg 93%
    06:00 +11°C° 0 mm 3 mps 767 mmHg 94%
    07:00 +12°C° 0 mm 3 mps 767 mmHg 90%
    08:00 +13°C° 0 mm 3 mps 767 mmHg 86%
    09:00 +14°C° 0 mm 3 mps 767 mmHg 83%
    10:00 +17°C° 0 mm 3 mps 767 mmHg 79%
    11:00 +18°C° 0 mm 3 mps 767 mmHg 75%
    12:00 +19°C° 0 mm 3 mps 767 mmHg 71%
    13:00 +19°C° 0 mm 3 mps 767 mmHg 73%
    14:00 +19°C° 0 mm 3 mps 767 mmHg 74%
    15:00 +18°C° 0 mm 2 mps 766 mmHg 76%
    16:00 +17°C° 0 mm 2 mps 767 mmHg 81%
    17:00 +16°C° 0 mm 2 mps 767 mmHg 86%
    18:00 +15°C° 0 mm 2 mps 767 mmHg 90%
    19:00 +14°C° 0 mm 2 mps 767 mmHg 91%
    20:00 +14°C° 0 mm 2 mps 767 mmHg 92%
    21:00 +14°C° 0 mm 2 mps 767 mmHg 93%
    22:00 +12°C° 0 mm 3 mps 767 mmHg 94%
    23:00 +12°C° 0 mm 3 mps 766 mmHg 94%

    27 October, Friday

    Time Temperature Precipitation Wind Pressure Humidity
    00:00 +12°C° 0 mm 3 mps 766 mmHg 95%
    01:00 +12°C° 0 mm 3 mps 766 mmHg 95%
    02:00 +11°C° 0 mm 3 mps 765 mmHg 95%
    03:00 +11°C° 0 mm 3 mps 765 mmHg 95%
    04:00 +11°C° 0 mm 3 mps 765 mmHg 95%
    05:00 +11°C° 0 mm 3 mps 765 mmHg 95%
    06:00 +11°C° 0 mm 4 mps 765 mmHg 95%
    07:00 +12°C° 0 mm 4 mps 765 mmHg 93%
    08:00 +13°C° 0 mm 4 mps 765 mmHg 90%
    09:00 +14°C° 0 mm 4 mps 765 mmHg 87%
    10:00 +14°C° 0.2 mm 4 mps 765 mmHg 88%
    11:00 +13°C° 0.2 mm 4 mps 765 mmHg 88%
    12:00 +13°C° 0.2 mm 4 mps 765 mmHg 88%
    13:00 +13°C° 0.2 mm 4 mps 765 mmHg 85%
    14:00 +13°C° 0.2 mm 4 mps 766 mmHg 83%
    15:00 +12°C° 0.2 mm 4 mps 766 mmHg 80%
    16:00 +12°C° 0 mm 4 mps 766 mmHg 82%
    17:00 +11°C° 0 mm 4 mps 767 mmHg 84%
    18:00 +10°C° 0 mm 3 mps 768 mmHg 87%
    19:00 +10°C° 0 mm 3 mps 768 mmHg 87%
    20:00 +9°C° 0 mm 3 mps 768 mmHg 87%
    21:00 +9°C° 0 mm 2 mps 768 mmHg 88%
    22:00 +9°C° 0 mm 3 mps 768 mmHg 88%
    23:00 +9°C° 0 mm 3 mps 767 mmHg 88%
    Show more